Location: Condor
(52.3263°N, 114.5541°W)
Time: 21:53:54
(UTC+00:00)

Oscar 19 - Pass Details

Date: 10 December 2023
Orbit: 771 x 789 km, 98.9° (Epoch: 04 March)

Event Time Altitude Azimuth Distance (km) Brightness Sun altitude
Rises 00:32:13 0° 204° (SSW) 3,235 14.7 -9.5°
Reaches altitude 10° 00:35:04 10° 220° (SW) 2,315 14.3 -9.9°
Maximum altitude 00:38:53 21° 269° (W) 1,680 13.3 -10.5°
Drops below altitude 10° 00:42:46 10° 319° (NW) 2,333 13.3 -11.0°
Sets 00:45:39 0° 335° (NNW) 3,268 13.9 -11.4°
